Location: Darlington Observatory
(36.4817°N, 105.8156°W)
Time: 10:55:12
(UTC-06:00)

MOS 1 - Visible Passes

Search period start: 29 August 2015 00:00
Search period end: 08 September 2015 00:00
Orbit: 880 x 891 km, 99.3° (Epoch: 29 August)

Date Brightness Start Highest point End Pass type
(mag) Time Alt. Az. Time Alt. Az. Time Alt. Az.
29 Aug 6.9 05:21:38 10° NE 05:25:46 21° E 05:30:05 10° SE visible
30 Aug 6.9 05:20:03 10° NE 05:24:05 20° E 05:28:18 10° SE visible
31 Aug 6.9 05:18:29 10° NE 05:22:23 20° E 05:26:31 10° SE visible
01 Sep 7.0 05:16:54 10° NE 05:20:42 19° E 05:24:44 10° SE visible
02 Sep 7.0 05:15:20 10° NE 05:19:01 18° E 05:22:56 10° SE visible
03 Sep 7.0 05:13:47 10° NE 05:17:20 17° E 05:21:08 10° SE visible
04 Sep 7.0 05:12:14 10° NE 05:15:39 17° E 05:19:19 10° SE visible
05 Sep 7.1 05:10:42 10° NE 05:13:57 16° E 05:17:30 10° SE visible
06 Sep 7.1 05:09:10 10° ENE 05:12:16 15° E 05:15:40 10° SE visible
07 Sep 7.1 05:07:39 10° ENE 05:10:35 15° E 05:13:49 10° SE visible
